Location: Anciles
(42.5833°N, 0.5167°E)
Time: 10:50:47
(UTC+00:00)

Cosmos 1140 Rocket - Pass Details

Date: 10 December 2019
Orbit: 744 x 768 km, 74.1° (Epoch: 23 January)

Event Time Altitude Azimuth Distance (km) Brightness Sun altitude
Rises 17:42:00 0° 169° (S) 3,168 6.8 -13.8°
Reaches altitude 10° 17:44:37 10° 158° (SSE) 2,250 5.9 -14.2°
Maximum altitude 17:48:55 28° 100° (E) 1,363 4.3 -15.0°
Enters shadow 17:50:29 24° 70° (ENE) 1,514 4.4 -15.2°
